Flag Weather past 2 weeks in Ashgabat, Turkmenistan

Now
39 °F

Light rain. Low clouds.


Feels Like: 35 °F
Forecast: 39 / 43 °F
Wind: 6 mph from Northeast

Location: Ashgabat

Current Time: Nov 25, 2014 at 3:38:02 AM

Latest Report: Nov 25, 2014 at 3:00 AM


Visibility: 3 mi

Pressure: 30.42 "Hg

Humidity: 93%

Dew point: 37 °F

Location of AshgabatLocation

Historic Weather in Ashgabat — Graph

°F

Ashgabat temperature yesterday

Maximum temperature yesterday: 52 °F (at 12:00 AM)
Minimum temperature yesterday: 41 °F (at 10:30 PM)
Average temperature yesterday: 47 °F

Past Weeks' High & Low Weather Summary

 TemperatureHumidityPressure
High70 °F (Nov 16, 4:00 PM)100% (Nov 10, 7:30 AM)30.45 "Hg (Nov 10, 7:30 AM)
Low34 °F (Nov 14, 4:30 AM)29% (Nov 16, 4:00 PM)29.71 "Hg (Nov 23, 5:00 AM)
Average46 °F77%30.26 "Hg
* Reported Nov 10 2:00 AM — Nov 25 2:30 AM, Ashgabat, Weather by CustomWeather, © 2014

Note: Actual official high and low records may vary slightly from our data, if they occured in-between our weather recording intervals... More about our weather records

Advertising

Ashgabat weather history for previous 24 hours

 ConditionsComfort  
Time TempWeatherWind HumidityBarometerVisibility
2:30 AM
Nov 25
39 °FLight rain. Low clouds.3 mph93%30.39 "Hg2 mi
2:00 AM39 °FLight rain. Low clouds.3 mph100%30.42 "Hg2 mi
1:30 AM39 °FLight rain. Low clouds.6 mph100%30.42 "Hg2 mi
1:00 AM39 °FLight rain. Low clouds.6 mph100%30.42 "Hg2 mi
12:30 AM41 °FLight rain. Low clouds.6 mph93%30.42 "Hg2 mi
12:00 AM41 °FLight rain. Low clouds.6 mph93%30.42 "Hg2 mi
11:30 PM
Nov 24
41 °FLight rain. Low clouds.6 mph93%30.42 "Hg2 mi
11:00 PM41 °FLight rain. Low clouds.8 mph93%30.39 "Hg2 mi
10:30 PM41 °FLight rain. Low clouds.8 mph93%30.39 "Hg2 mi
10:00 PM43 °FLight rain. Low clouds.8 mph93%30.36 "Hg3 mi
9:30 PM43 °FLight rain. Low clouds.10 mph93%30.36 "Hg2 mi
9:00 PM46 °FLight rain. Overcast.6 mph87%30.36 "Hg6 mi
8:00 PM46 °FLight rain. Overcast.3 mph87%30.33 "HgN/A
7:30 PM45 °FLight rain. Overcast.1 mph93%30.33 "HgN/A
7:00 PM45 °FLight rain. Overcast.3 mph93%30.33 "Hg4 mi
6:30 PM45 °FLight rain. Low clouds.No wind93%30.30 "Hg3 mi
6:00 PM45 °FLight rain. Low clouds.No wind93%30.30 "Hg4 mi
5:00 PM45 °FLight rain. Overcast.6 mph93%30.30 "Hg3 mi
4:00 PM46 °FLight rain. Overcast.6 mph82%30.27 "HgN/A
3:00 PM46 °FOvercast.1 mph82%30.24 "HgN/A
2:00 PM46 °FLight rain. Overcast.3 mph82%30.24 "HgN/A
1:30 PM46 °FLight rain. Low clouds.3 mph82%30.24 "HgN/A
1:00 PM46 °FOvercast.3 mph82%30.24 "HgN/A
12:00 PM46 °FLight rain. Overcast.1 mph82%30.24 "HgN/A
11:30 AM46 °FLight rain. Overcast.1 mph82%30.24 "HgN/A
11:00 AM46 °FLight rain. Overcast.1 mph82%30.24 "HgN/A
10:30 AM46 °FOvercast.3 mph82%30.24 "HgN/A
10:00 AM46 °FOvercast.3 mph82%30.21 "HgN/A
9:30 AM46 °FOvercast.6 mph87%30.21 "HgN/A
9:00 AM46 °FOvercast.6 mph87%30.18 "HgN/A
8:30 AM50 °FOvercast.3 mph82%30.18 "HgN/A
8:00 AM50 °FOvercast.3 mph82%30.15 "HgN/A
7:30 AM50 °FOvercast.3 mph82%30.15 "HgN/A
7:00 AM50 °FOvercast.3 mph82%30.12 "HgN/A
6:00 AM50 °FPassing clouds.3 mph82%30.09 "HgN/A
5:00 AM50 °FPassing clouds.1 mph88%30.09 "HgN/A
4:00 AM50 °FPassing clouds.No wind88%30.09 "HgN/A
3:00 AM50 °FPassing clouds.1 mph88%30.07 "HgN/A
Weather by CustomWeather, © 2014

See weather overviewHow to use our weather pages